Dewpoint
54 54 54 54 54 55 55 55 55 55 56 57 57 57 58 59 58 46 34 39 42 61 58 26 28 27 24 18 14 12 15 15 11 8 4 10 11 12 17 29 29 43 52 54 58
54 54 54 54 54 54 54 55 55 55 56 56 57 57 57 57 42 33 49 64 62 63 31 29 25 24 15 15 12 11 16 12 7 3 9 8 13 13 17 17 28 38 57 55 61
53 53 53 54 54 54 54 54 55 55 56 56 57 57 57 55 42 38 64 64 64 57 27 27 19 15 15 13 11 14 12 10 6 12 9 12 12 12 14 16 23 33 51 54 58
53 53 53 53 54 54 54 54 54 55 56 56 56 56 56 47 35 36 65 65 64 35 28 23 16 12 13 12 12 11 11 10 7 10 9 10 13 8 14 16 32 45 50 53 54
53 53 53 53 53 54 54 54 54 55 55 55 56 56 50 42 36 45 65 61 38 32 27 14 15 16 14 13 12 10 10 9 8 7 9 10 9 9 14 15 24 45 59 53 51
53 54 53 53 53 54 54 55 55 55 55 55 55 55 42 33 39 37 34 35 28 25 26 19 21 20 19 19 15 10 12 10 4 8 7 7 7 10 13 14 19 37 36 46 49
53 53 53 53 53 54 55 55 55 55 55 55 56 50 39 31 27 41 31 30 29 23 20 21 24 26 25 20 20 16 13 14 13 12 11 8 9 8 12 14 16 31 30 30 48
52 52 53 53 53 54 54 55 55 56 55 55 56 46 38 31 27 36 33 31 30 24 23 27 27 26 25 23 21 20 19 15 14 14 12 11 10 11 12 14 15 21 25 25 46
52 52 53 54 54 54 54 54 56 55 55 56 48 45 36 40 27 28 35 31 30 24 27 26 28 27 24 21 19 19 17 15 14 15 13 14 11 10 13 15 19 21 20 20 25
52 52 52 54 54 54 54 54 56 54 50 43 39 38 34 29 28 25 30 31 30 26 25 26 25 24 23 21 19 16 12 14 15 14 13 12 12 12 14 10 19 19 21 22 23
51 51 52 53 54 54 51 49 45 45 43 37 35 34 28 30 30 27 27 30 31 28 23 24 22 21 21 22 21 18 17 16 18 16 14 16 17 14 17 14 18 21 26 29 35
51 51 51 52 53 53 48 39 29 28 28 28 26 24 22 24 28 27 25 26 29 27 25 22 22 24 23 21 21 19 19 20 20 18 16 17 16 19 18 20 23 23 25 28 41
50 50 50 52 52 47 35 24 24 28 30 29 21 21 26 22 21 22 27 24 25 25 25 23 22 21 23 22 20 19 20 22 20 19 18 19 18 20 20 27 28 31 34 36 39
49 49 50 50 45 32 30 25 25 34 32 27 24 28 30 28 25 23 27 25 23 23 23 23 22 20 20 21 21 22 19 21 20 19 16 20 17 25 24 29 32 34 38 39 44
49 49 49 49 41 29 26 25 30 37 33 22 28 32 29 26 29 28 26 26 26 23 24 23 22 21 21 21 23 22 22 21 21 21 22 20 19 21 23 31 33 35 38 41 44
48 48 49 39 42 33 25 28 35 38 29 21 25 26 28 28 26 28 28 25 26 26 25 25 25 24 22 22 22 22 21 23 23 21 20 22 20 20 20 28 35 36 37 40 41
47 48 46 37 31 23 28 33 34 30 18 18 23 24 21 22 25 26 27 29 25 25 25 24 23 23 24 23 23 23 26 21 20 20 20 22 19 24 35 30 34 37 38 38 40
46 47 46 34 30 26 33 34 32 23 15 25 23 20 20 18 19 23 26 25 27 28 25 23 22 22 27 28 28 28 32 30 30 27 20 23 21 31 37 36 36 39 38 39 38
45 41 37 38 26 29 31 29 28 27 23 22 19 17 18 17 18 23 23 22 23 32 29 28 26 30 32 32 33 31 30 34 34 35 31 27 29 34 35 37 38 38 38 39 40
39 41 35 35 32 31 28 29 26 26 25 20 17 19 19 19 20 25 23 21 24 28 30 32 28 26 30 34 33 32 34 32 31 34 33 31 32 38 45 39 37 39 38 38 39
41 32 34 32 31 28 28 26 22 23 25 23 22 23 23 23 23 21 21 20 27 27 30 31 33 30 29 27 27 28 30 36 36 33 36 32 36 45 45 48 47 44 39 39 39
38 31 31 32 28 28 29 28 32 24 22 24 26 25 25 24 24 24 23 23 23 24 24 28 33 29 26 25 24 27 32 37 37 33 39 37 38 47 46 48 49 48 49 39 36
35 33 33 32 27 29 32 26 25 22 24 23 24 25 26 27 27 26 25 23 23 23 29 32 28 26 24 22 32 31 29 33 37 39 35 32 33 37 40 44 47 49 47 40 39
37 28 31 32 30 32 31 30 25 24 22 24 26 27 28 27 28 27 25 25 24 25 41 38 29 25 21 22 30 28 28 24 34 35 29 28 28 34 34 36 42 46 47 43 40
37 31 33 28 28 32 32 30 27 26 27 27 27 27 27 28 27 26 25 25 26 37 28 32 28 25 22 21 20 19 17 17 22 23 24 23 22 28 35 35 35 42 43 34 33
32 30 30 30 31 30 33 30 28 27 28 27 28 27 28 29 28 27 27 29 28 30 29 34 29 29 25 21 20 19 19 19 17 16 16 17 19 21 26 34 32 31 30 31 31
32 34 31 32 28 27 27 28 26 28 29 29 28 28 27 29 32 33 34 35 34 33 32 33 31 31 28 25 22 21 20 18 19 19 17 16 18 22 22 26 31 35 33 34 34
Lifted_Index
15 15 15 15 15 14 14 13 13 13 13 13 12 12 11 11 11 11 10 9 10 10 10 10 9 9 8 8 7 6 5 4 2 0 -0 -0 0 1 1 1 0 -2 -3 -4 -5
15 15 15 15 15 15 14 14 13 13 13 13 12 12 12 11 10 9 9 9 10 10 10 9 9 8 8 7 6 6 5 3 1 0 0 0 1 1 1 1 0 -1 -3 -4 -5
14 14 15 15 15 15 14 14 13 13 13 13 12 12 12 10 8 7 8 9 9 10 10 9 9 8 7 7 6 5 4 3 2 1 1 1 2 2 1 1 0 -1 -3 -4 -5
14 14 14 15 15 15 14 14 13 12 12 12 12 12 11 9 6 6 7 9 9 10 10 9 8 8 7 6 5 5 4 3 3 3 3 3 3 3 2 1 -0 -1 -3 -4 -4
14 14 13 13 14 14 14 13 12 12 12 12 12 12 10 8 6 6 8 9 9 10 9 9 8 7 6 5 5 4 4 4 4 4 4 4 4 3 3 2 0 -1 -2 -3 -3
15 14 13 13 13 13 13 12 12 11 12 12 12 11 9 7 6 7 8 9 9 9 9 8 7 7 6 5 4 4 4 4 4 4 4 4 4 4 3 2 1 1 -0 -2 -2
15 14 13 12 13 13 12 11 11 11 12 12 12 10 8 7 7 7 8 9 9 9 8 7 7 6 6 5 5 5 4 4 4 4 4 4 4 4 3 3 2 2 2 0 -1
15 14 13 12 12 12 11 11 10 11 11 11 11 9 7 7 7 7 7 8 8 8 8 7 7 6 6 6 5 5 5 4 4 3 3 3 3 3 3 3 3 3 3 2 -0
14 14 13 13 13 12 11 10 10 10 10 10 9 8 7 7 8 7 7 7 8 8 8 7 7 7 6 6 5 4 4 3 2 2 2 3 3 3 2 2 2 2 3 2 1
14 14 13 13 12 11 10 9 9 9 9 8 7 7 7 7 7 8 8 7 7 8 8 7 7 7 6 5 4 3 2 2 1 1 1 2 3 3 2 1 1 2 3 2 1
14 14 14 13 12 11 9 8 7 7 7 7 7 7 7 7 7 8 8 7 7 7 7 7 7 6 6 5 4 3 2 2 2 1 0 1 2 2 1 1 1 1 2 2 1
15 14 14 12 11 10 9 8 8 8 8 7 7 7 7 7 7 7 8 7 7 7 7 7 6 5 5 4 4 3 3 3 3 2 1 0 1 1 1 0 1 1 2 2 1
15 15 14 12 11 9 9 10 10 9 8 7 7 7 7 7 7 7 7 7 7 6 6 5 5 5 4 4 4 3 3 3 3 2 1 0 1 1 1 1 1 1 2 1 1
15 15 14 12 11 10 10 10 10 8 7 6 6 6 6 6 6 6 6 6 6 5 5 5 4 4 3 3 3 2 2 2 2 1 1 0 0 0 0 0 0 1 1 1 0
14 14 14 12 11 10 10 10 9 7 5 5 6 6 5 5 5 5 5 5 5 5 4 4 3 3 2 1 1 1 1 1 1 0 0 0 0 -0 -0 -0 -0 0 0 0 0
13 14 13 12 11 10 10 9 7 5 4 5 5 5 5 5 5 4 5 5 5 4 4 3 3 2 1 0 0 -0 -0 -0 -0 -0 -0 0 0 -0 -0 -1 -1 -0 0 1 1
13 13 12 12 11 10 10 8 5 4 4 5 5 5 5 5 4 4 4 4 4 3 3 3 2 1 1 0 -0 -0 -0 -0 -0 -0 -0 -0 -0 -0 -0 -1 -1 -0 0 1 1
12 11 11 10 11 10 9 7 5 4 5 5 6 6 5 5 5 4 4 3 3 3 3 2 1 1 0 -0 -0 -0 -0 -0 -0 -0 -0 -0 -0 -0 -0 -1 -1 -0 0 1 1
11 10 9 9 10 10 8 6 5 5 5 6 6 6 5 5 4 4 3 3 2 2 2 2 1 0 -0 -0 -0 -0 -1 -0 -0 -0 -0 -0 -0 -0 -0 -0 -0 0 1 1 2
10 9 8 8 9 9 8 6 5 6 6 6 6 5 5 4 3 3 3 3 2 2 2 2 1 0 -0 -1 -1 -1 -1 -1 -0 -0 -1 -1 -0 -0 -0 -0 0 1 1 2 2
10 8 8 8 8 8 6 5 6 6 7 6 6 5 5 4 3 3 3 3 3 3 3 2 1 1 0 -1 -1 -1 -1 -1 -0 -0 -0 -0 -0 0 0 0 1 1 2 2 3
9 8 7 8 7 6 5 5 6 6 7 7 6 5 5 4 4 4 3 3 4 4 3 2 2 1 1 0 -1 -1 -1 -1 -0 0 0 0 1 1 1 1 2 2 3 3 3
8 7 7 7 6 5 5 5 6 6 6 6 6 5 5 5 4 4 3 3 4 4 3 3 2 2 1 1 -0 -0 -0 0 0 1 1 1 2 2 2 2 2 3 3 3 3
8 7 6 6 6 6 6 6 6 6 6 6 6 5 5 5 5 4 4 3 4 5 4 4 3 2 2 1 -0 -0 0 1 1 1 2 2 2 3 3 3 3 2 2 2 2
7 7 7 6 6 6 6 6 6 6 5 5 5 5 5 5 5 4 4 3 4 5 5 4 4 3 2 1 0 0 1 1 1 1 2 2 3 3 3 3 3 2 2 3 3
9 8 8 7 7 7 6 6 6 6 5 5 5 5 5 5 4 4 4 3 3 3 4 4 3 2 1 1 1 1 1 1 1 1 1 2 2 3 3 3 3 3 2 2 3
10 10 9 8 8 7 6 6 6 6 5 5 5 5 5 5 5 4 4 3 2 2 3 4 3 2 1 1 1 1 1 1 1 1 1 1 1 2 3 3 3 2 2 2 2